sat.trackr.live / text

‹ back to catalog

HULIANWANG DIGUI-05

NORAD 62327 · 2024-240E

PAYLOAD ACTIVE UNKNOWN

§ Identity

Operator
Country
PRC
Launch date
2024-12-16
Launch site
WSC
Launch vehicle
Mass (kg)
RCS (m²)

External: N2YO · Heavens-Above · Gunter

§ Orbital elements

Epoch: 2026-05-25T03:50:27.150144Z

Period
108.73 min
Inclination
86.5045°
Eccentricity
0.0001357
Mean motion
13.24408514 rev/d
Perigee alt
1,166.9 km
Apogee alt
1,169.0 km
Semi-major
7,546.1 km
B*
3.5144e-5
RAAN
351.2150°
Arg perigee
90.2512°
Mean anomaly
269.8778°
Rev number
6,959

§ Raw data

HULIANWANG DIGUI-051 62327U 24240E   26145.16003646  .00000030  00000+0  35144-4 0  99992 62327  86.5045 351.2150 0001357  90.2512 269.8778 13.24408514 69590

JSON: /api/v1/satellites/62327 · /tle

For live sub-satellite position, see the globe view (requires WebGL).

§ Visibility from observer

Set your observer location to see the next 7 days of passes ≥ 10°. The values pass through the URL so the page stays shareable.

No JS? Fill the form by hand. The geolocation button needs JavaScript.